Erie, PA

8:55 AM EDT on June 23, 2017 (GMT -0400)
Erie International

Weather History for KERI - November, 2011

Change the Weather History Date:

Thursday, November 17, 2011

  Actual Average Record
Temperature  
Mean Temperature 37 °F 43 °F  
Max Temperature 42 °F 49 °F 70 °F (1928)
Min Temperature 31 °F 36 °F 15 °F (1959)
Degree Days  
Heating Degree Days 28 22  
Month to date heating degree days 256 329  
Since 1 July heating degree days 700 832  
Cooling Degree Days 0 0  
Month to date cooling degree days 0 0  
Year to date cooling degree days 830 638  
Moisture  
Dew Point 25 °F    
Average Humidity 59    
Maximum Humidity 78    
Minimum Humidity 40    
Precipitation  
Precipitation 0.03 in 0.13 in 1.09 in (1993)
Month to date precipitation 1.64 2.21  
Year to date precipitation 49.46 36.70  
Snow  
Snow 0.30 in 0.20 in - ()
Month to date snowfall 0.8 3.2  
Since 1 July snowfall 0.8 3.4  
Since 1 September snowfall 0.8 3.4  
Snow Depth 0.00 in    
Sea Level Pressure  
Sea Level Pressure 30.04 in    
Wind  
Wind Speed 14 mph (West)    
Max Wind Speed 26 mph    
Max Gust Speed 39 mph    
Visibility 7 miles    
Events Snow    
T = Trace of Precipitation, MM = Missing Value Source: NWS Daily Summary

Daily Weather History Graph

Daily Weather History Graph

Search for Another Location

Airport or City:

Trip Planner

Search our weather history database for the weather conditions in past years. The results will help you decide how hot, cold, wet, or windy it might be!

Date:

Astronomy

Nov. 17, 2011 Rise Set
Actual Time 7:12 AM EST 4:57 PM EST
Civil Twilight 6:42 AM EST 5:28 PM EST
Nautical Twilight 6:08 AM EST 6:02 PM EST
Astronomical Twilight 5:35 AM EST 6:35 PM EST
Moon 11:18 PM EST (11/17) 12:19 PM EST (11/17)
Length of Visible Light 10h 45m
Length of Day
9h 45m
Waning Gibbous, 60% of the Moon is Illuminated
Nov 17
Waning Gibbous
Nov 18
Last Quarter
Nov 25
New
Dec 2
First Quarter
Dec 10
Full

Hourly Weather History & Observations

Time (EST) Temp. Windchill Dew Point Humidity Pressure Visibility Wind Dir Wind Speed Gust Speed Precip Events Conditions
12:51 AM 39.9 °F 31.4 °F 28.0 °F 63% 30.01 in 10.0 mi NW 16.1 mph 21.9 mph N/A   Mostly Cloudy
1:16 AM 39.2 °F 31.2 °F 26.6 °F 61% 30.00 in 10.0 mi NW 13.8 mph 26.5 mph N/A   Overcast
1:30 AM 39.2 °F 32.0 °F 26.6 °F 61% 30.00 in 10.0 mi NW 11.5 mph 19.6 mph N/A   Mostly Cloudy
1:41 AM 39.2 °F 32.5 °F 26.6 °F 61% 30.00 in 10.0 mi NW 10.4 mph 20.7 mph N/A   Mostly Cloudy
1:49 AM 37.4 °F 28.9 °F 26.6 °F 65% 30.01 in 10.0 mi WNW 13.8 mph 19.6 mph N/A   Mostly Cloudy
1:51 AM 37.9 °F 30.5 °F 27.0 °F 65% 30.02 in 10.0 mi NW 11.5 mph 19.6 mph N/A   Mostly Cloudy
2:51 AM 37.9 °F 30.9 °F 26.1 °F 62% 30.03 in 10.0 mi NW 10.4 mph - N/A   Overcast
3:51 AM 37.4 °F 29.8 °F 24.8 °F 60% 30.01 in 10.0 mi NW 11.5 mph 17.3 mph N/A   Mostly Cloudy
4:51 AM 37.0 °F 28.9 °F 23.0 °F 57% 30.03 in 10.0 mi NW 12.7 mph - N/A   Mostly Cloudy
5:51 AM 37.0 °F 29.8 °F 23.0 °F 57% 30.02 in 10.0 mi NW 10.4 mph - N/A   Mostly Cloudy
6:51 AM 37.9 °F 31.5 °F 19.9 °F 48% 30.03 in 10.0 mi West 9.2 mph - N/A   Overcast
7:51 AM 37.9 °F 31.5 °F 19.0 °F 47% 30.03 in 10.0 mi West 9.2 mph 16.1 mph N/A   Overcast
8:51 AM 37.9 °F 32.1 °F 19.0 °F 47% 30.04 in 10.0 mi West 8.1 mph 17.3 mph N/A   Mostly Cloudy
9:51 AM 39.9 °F 33.9 °F 18.0 °F 41% 30.04 in 10.0 mi West 9.2 mph 17.3 mph N/A   Scattered Clouds
10:51 AM 39.9 °F 33.9 °F 19.0 °F 43% 30.03 in 10.0 mi WSW 9.2 mph - N/A   Overcast
11:51 AM 37.9 °F 27.9 °F 24.1 °F 57% 30.01 in 10.0 mi SW 19.6 mph 26.5 mph N/A   Overcast
12:33 PM 33.8 °F 23.5 °F 28.4 °F 81% 29.98 in 3.0 mi SW 16.1 mph 29.9 mph 0.00 in Snow Light Snow
12:40 PM 35.6 °F 27.1 °F 28.4 °F 75% 29.97 in 1.0 mi SW 12.7 mph 25.3 mph 0.00 in Snow Light Snow
12:45 PM 35.6 °F 27.5 °F 30.2 °F 81% 29.97 in 2.0 mi SW 11.5 mph - 0.00 in Snow Light Snow
12:51 PM 37.9 °F 30.0 °F 30.9 °F 76% 29.98 in 8.0 mi SSW 12.7 mph - 0.00 in Snow Light Snow
12:59 PM 39.2 °F 31.6 °F 30.2 °F 70% 29.96 in 9.0 mi SSW 12.7 mph - 0.00 in   Unknown
1:30 PM 37.4 °F 27.2 °F 26.6 °F 65% 29.96 in 9.0 mi WSW 19.6 mph 28.8 mph 0.00 in Snow Light Snow
1:51 PM 39.9 °F 30.2 °F 25.0 °F 55% 29.97 in 9.0 mi SW 20.7 mph 27.6 mph 0.00 in   Unknown
2:51 PM 39.9 °F 30.2 °F 19.0 °F 43% 29.97 in 10.0 mi West 20.7 mph 32.2 mph 0.00 in   Mostly Cloudy
3:51 PM 36.0 °F 25.6 °F 23.0 °F 59% 30.00 in 6.0 mi WSW 18.4 mph 31.1 mph 0.00 in Snow Light Snow
4:37 PM 33.8 °F 24.8 °F 24.8 °F 70% 30.00 in 10.0 mi West 12.7 mph 27.6 mph 0.00 in   Overcast
4:51 PM 35.1 °F 23.8 °F 28.9 °F 78% 30.03 in 9.0 mi West 20.7 mph 34.5 mph 0.00 in   Overcast
5:07 PM 33.8 °F 23.5 °F 28.4 °F 81% 30.02 in 2.5 mi West 16.1 mph 27.6 mph 0.00 in Snow Light Snow
5:20 PM 33.8 °F 24.8 °F 28.4 °F 81% 30.01 in 5.0 mi WSW 12.7 mph 26.5 mph 0.00 in Snow Light Snow
5:32 PM 33.8 °F 24.3 °F 26.6 °F 75% 30.01 in 3.0 mi WSW 13.8 mph 26.5 mph 0.00 in Snow Light Snow
5:47 PM 33.8 °F 25.3 °F 28.4 °F 81% 30.02 in 2.5 mi WSW 11.5 mph 25.3 mph 0.00 in Snow Light Snow
5:51 PM 34.0 °F 23.4 °F 27.0 °F 75% 30.04 in 4.0 mi West 17.3 mph 32.2 mph 0.00 in Snow Light Snow
6:05 PM 33.8 °F 22.8 °F 28.4 °F 81% 30.04 in 8.0 mi WNW 18.4 mph 31.1 mph 0.00 in Snow Light Snow
6:51 PM 35.1 °F 23.5 °F 25.0 °F 67% 30.08 in 9.0 mi West 21.9 mph 36.8 mph 0.00 in Snow Light Snow
7:51 PM 35.6 °F 27.1 °F 21.2 °F 56% 30.08 in 10.0 mi West 12.7 mph 32.2 mph N/A   Overcast
8:51 PM 35.1 °F 25.2 °F 19.0 °F 52% 30.13 in 8.0 mi WNW 16.1 mph 27.6 mph 0.00 in Snow Light Snow
9:25 PM 32.0 °F 22.1 °F 24.8 °F 75% 30.13 in 1.8 mi West 13.8 mph 26.5 mph 0.00 in Snow Light Snow
9:33 PM 32.0 °F 19.8 °F 26.6 °F 80% 30.13 in 1.2 mi WSW 20.7 mph 27.6 mph 0.01 in Snow Light Snow
9:41 PM 30.2 °F 19.3 °F 28.4 °F 93% 30.14 in 0.8 mi West 15.0 mph 28.8 mph 0.01 in Snow Light Snow
9:49 PM 32.0 °F 22.1 °F 26.6 °F 80% 30.14 in 1.0 mi West 13.8 mph 26.5 mph 0.02 in Snow Light Snow
9:50 PM 32.0 °F 22.5 °F 27.0 °F 82% 30.16 in 1.0 mi West 12.7 mph 26.5 mph 0.02 in Snow Light Snow
9:53 PM 33.8 °F 21.6 °F 23.0 °F 65% 30.14 in 2.0 mi West 23.0 mph 36.8 mph 0.00 in Snow Light Snow
10:01 PM 33.8 °F 23.2 °F 19.4 °F 56% 30.13 in 9.0 mi WNW 17.3 mph 36.8 mph 0.00 in   Mostly Cloudy
10:51 PM 34.0 °F 24.2 °F 19.0 °F 54% 30.18 in 10.0 mi West 15.0 mph 28.8 mph 0.00 in   Overcast
11:51 PM 34.0 °F 23.4 °F 18.0 °F 52% 30.21 in 10.0 mi West 17.3 mph 24.2 mph N/A   Overcast